Wind_Speed
17 17 16 16 17 18 18 19 19 19 19 18 17 18 17 17 18 18 17 18 17 17 18 19 21 23 26 29 31 33 35 37 37 37 37 40 40 44 45 47 49 50 49 52 53
17 17 18 19 19 20 21 21 21 21 20 20 19 19 20 20 20 21 22 21 21 20 20 21 21 21 21 21 22 25 27 30 32 32 35 37 39 42 43 44 47 48 50 52 54
20 23 24 25 24 23 23 23 23 24 23 22 22 21 21 22 24 23 24 25 25 25 25 25 25 24 24 24 26 26 26 27 27 28 28 29 29 34 34 36 38 40 44 47 50
27 29 31 32 31 29 28 26 25 26 25 24 24 24 23 24 26 27 28 29 30 31 31 30 29 29 29 28 29 29 29 28 29 29 29 29 30 31 32 33 34 38 38 41 43
31 32 34 36 37 34 34 33 32 30 29 30 29 29 29 28 28 29 32 32 33 34 35 36 35 34 33 33 34 34 35 34 34 35 35 34 33 35 36 35 36 36 37 38 40
32 34 36 37 39 39 38 38 36 36 36 35 33 33 33 34 33 33 33 36 38 38 39 40 40 40 39 39 40 41 41 41 41 42 41 40 39 41 40 42 42 42 42 44 45
38 38 39 41 42 42 42 42 42 41 40 39 39 38 37 38 38 38 38 38 40 42 43 44 44 45 45 44 46 45 45 46 48 48 48 47 46 46 45 46 46 46 45 45 47
40 41 42 41 43 44 45 43 41 40 40 39 39 41 41 42 40 41 42 43 43 43 46 47 48 49 50 50 50 50 50 50 51 52 52 53 52 50 51 52 52 51 49 50 49
45 44 45 45 45 44 45 46 46 47 47 46 44 43 41 43 44 43 43 44 46 47 47 49 51 52 53 54 55 55 54 55 54 56 54 56 57 55 55 56 57 56 55 55 53
48 47 46 48 48 48 48 49 51 51 50 49 50 48 48 46 45 44 45 45 47 47 50 51 52 53 56 56 58 57 58 58 58 56 58 57 58 58 56 57 59 58 58 58 57
45 44 45 45 45 44 42 44 45 47 46 47 48 50 50 51 51 52 51 50 49 50 51 52 53 55 56 57 59 60 60 61 60 61 57 62 60 61 61 59 60 60 60 61 60
39 38 37 38 39 41 42 44 44 44 46 45 46 47 47 48 49 52 54 55 54 52 53 54 57 56 57 58 59 60 61 63 64 63 62 62 63 63 64 61 61 61 61 61 61
37 38 39 41 43 42 41 44 43 42 43 41 45 47 49 49 48 47 49 50 52 54 54 55 57 55 58 59 60 61 63 63 63 64 63 64 61 62 65 62 64 62 62 61 61
39 41 42 46 46 46 47 50 51 50 51 43 47 48 50 53 53 51 48 49 49 46 48 51 56 56 58 59 59 62 64 64 65 65 65 66 60 61 64 63 64 64 64 63 63
44 41 44 45 47 50 49 54 55 55 58 53 47 46 48 49 54 54 54 52 52 51 51 53 50 52 53 56 59 62 65 65 66 68 69 66 69 62 67 65 65 65 66 65 66
45 49 49 48 49 49 51 50 53 55 48 53 47 45 45 46 45 49 57 58 58 58 55 56 58 56 58 58 59 61 63 65 66 69 67 69 73 63 71 69 67 68 69 67 68
53 52 54 59 57 57 56 54 52 54 56 48 43 42 43 42 44 43 45 51 58 61 62 62 62 64 62 62 64 64 66 66 67 71 64 72 73 65 75 71 70 72 70 71 71
55 57 62 60 63 61 62 58 56 53 52 50 41 40 43 41 43 42 44 45 46 48 51 56 58 66 69 68 68 72 73 70 73 73 71 78 72 67 74 77 77 80 75 75 75
55 56 58 61 62 66 69 69 61 57 54 52 48 41 43 43 43 42 43 44 46 49 50 52 49 56 59 60 62 65 74 81 82 75 82 73 77 76 75 77 80 78 77 76 75
68 67 70 73 71 68 72 72 58 56 55 53 53 49 46 47 44 48 50 48 46 47 50 52 49 52 56 60 60 64 70 75 78 78 82 79 82 80 84 86 77 76 80 78 75
75 79 81 77 78 72 75 74 66 61 58 58 57 55 54 52 51 49 56 57 50 49 50 57 58 53 61 63 66 69 69 74 80 80 81 80 78 84 90 89 89 80 81 84 83
81 82 84 84 84 73 75 74 69 65 62 60 58 57 61 60 56 56 56 60 59 54 60 64 63 61 64 69 73 73 71 75 81 79 85 87 73 78 85 87 93 89 87 87 88
80 43 33 43 51 61 70 68 70 67 61 60 59 60 64 61 55 52 56 61 64 63 65 71 72 74 72 77 80 84 79 79 81 82 83 88 81 79 86 90 89 89 88 92 91
68 34 35 40 50 60 64 66 62 65 62 61 63 60 55 53 55 56 61 65 68 73 76 78 80 87 83 82 87 85 80 78 82 86 86 89 86 81 84 91 93 95 95 92 92
58 51 40 47 54 60 59 60 62 60 60 55 53 54 56 59 63 67 68 72 76 80 82 88 89 92 85 86 85 82 74 77 87 86 91 86 88 83 84 90 94 103 96 100 98
53 49 44 44 47 51 55 53 50 49 51 53 57 61 65 67 69 71 76 81 82 86 89 92 90 92 81 87 87 80 75 87 90 94 96 94 88 85 89 95 96 104 98 102 107
55 52 49 45 46 49 48 48 52 56 60 62 65 67 70 72 75 79 83 87 89 92 94 95 91 89 79 89 85 75 91 89 87 86 88 89 80 84 88 91 92 98 101 106 106
Wind_Direction
277 285 287 293 295 293 293 294 294 298 298 303 301 284 270 266 252 250 244 240 236 234 232 233 234 235 238 240 239 240 242 243 242 241 241 243 243 243 242 241 240 240 241 244 245
274 280 286 292 297 293 292 292 292 293 295 295 295 292 276 263 260 250 244 242 242 239 237 237 235 234 234 235 233 234 234 239 239 239 239 241 243 246 246 246 247 245 244 244 245
278 287 286 290 292 295 293 291 291 290 290 291 288 285 283 271 258 257 251 247 246 246 247 246 241 239 238 240 241 242 240 239 240 238 236 239 239 244 247 250 251 252 251 252 250
283 288 289 289 291 296 295 290 288 290 287 287 285 280 276 275 264 255 255 251 248 247 246 246 247 247 247 244 244 245 242 243 243 243 243 241 244 246 247 248 250 254 255 256 257
284 286 288 291 295 296 295 294 288 283 284 283 283 279 275 270 267 261 252 253 251 249 248 248 247 245 245 245 245 243 244 244 242 244 246 247 248 249 252 253 254 256 259 261 262
287 288 289 289 291 294 293 290 289 286 282 277 276 277 274 271 267 263 258 251 251 251 250 249 248 248 245 245 246 245 245 245 246 247 248 250 252 253 255 257 259 260 263 265 264
287 287 288 288 289 290 290 289 288 286 283 278 274 270 271 270 269 266 261 259 252 249 250 251 251 250 250 247 248 249 248 248 249 250 250 251 252 253 255 258 261 263 264 265 266
289 290 291 290 287 287 287 287 285 283 282 279 276 272 268 265 266 265 263 260 258 253 251 250 251 252 252 251 250 250 251 251 251 253 252 253 252 251 254 257 259 260 261 262 263
289 288 288 287 286 285 285 284 283 282 280 277 275 273 269 265 264 263 262 262 261 258 253 252 251 252 253 253 254 253 252 253 253 254 252 254 253 252 255 256 259 260 261 261 261
289 287 286 285 285 285 284 284 282 281 280 277 274 272 269 268 264 262 260 260 259 259 258 254 253 253 253 253 254 257 257 256 257 254 259 257 258 257 257 260 262 261 262 262 263
288 288 287 286 286 286 287 284 280 278 277 276 275 272 268 265 264 264 262 261 260 259 257 255 253 254 253 254 255 256 256 258 258 260 257 262 261 263 260 260 260 262 263 264 263
286 285 289 291 292 291 290 291 289 287 285 277 275 273 270 267 264 261 260 260 259 259 260 259 256 255 253 253 254 255 257 258 259 259 259 260 262 264 263 262 263 263 263 263 263
298 301 300 304 303 301 301 306 298 300 295 294 280 272 266 263 263 261 260 258 258 257 256 258 258 260 259 257 255 255 256 258 259 260 259 260 261 262 263 264 263 263 263 263 262
307 306 305 308 308 309 306 309 309 304 304 305 285 277 270 262 259 259 260 259 257 257 259 259 258 259 260 260 259 261 259 260 260 260 260 260 258 260 261 262 264 263 264 264 264
302 302 301 303 304 302 300 300 301 298 302 303 291 281 278 275 265 258 257 258 259 258 257 257 256 259 260 263 263 265 265 264 264 264 261 261 259 258 262 261 260 262 263 263 264
291 291 292 293 295 298 299 300 297 296 296 303 295 287 285 282 280 269 264 264 262 259 255 258 257 256 260 260 258 259 262 263 263 263 263 263 262 260 260 261 266 261 262 262 264
288 286 289 293 293 290 294 296 294 296 297 296 296 287 286 284 282 281 275 267 266 264 264 261 262 263 258 261 262 261 262 260 262 262 260 261 260 259 263 262 259 262 261 263 263
287 285 290 292 294 293 293 294 296 293 291 290 297 293 285 282 279 280 276 275 273 272 273 270 270 269 266 262 265 265 261 261 262 261 260 259 262 257 259 262 259 262 261 261 264
285 286 290 294 290 292 292 295 298 291 291 289 288 294 294 281 282 276 277 277 276 276 273 270 268 270 272 272 269 270 271 266 261 260 261 261 263 260 258 257 264 264 262 261 262
290 287 289 290 290 286 287 289 295 291 288 289 288 285 289 292 276 278 279 276 278 280 277 274 266 273 274 276 273 272 270 270 271 264 264 260 260 262 263 261 255 261 266 264 262
290 287 284 281 284 281 282 286 290 292 288 287 287 283 282 285 283 282 275 277 275 280 280 274 272 275 278 279 279 279 272 271 269 269 266 261 260 261 260 261 260 257 260 262 263
306 293 281 276 275 273 276 282 288 290 288 288 286 283 282 283 283 280 276 277 279 282 282 282 282 278 283 287 286 282 275 268 267 266 265 266 259 259 260 259 260 257 254 256 260
314 301 289 277 267 267 275 280 284 288 286 286 282 282 281 284 284 282 280 281 286 288 288 288 290 288 288 288 285 282 279 274 268 263 259 259 258 257 258 260 259 258 256 254 252
315 297 287 278 271 270 274 280 284 287 287 286 286 287 287 287 285 286 286 289 291 290 289 288 289 289 290 287 284 283 281 277 273 268 263 257 254 250 254 258 257 259 257 256 256
310 301 270 268 268 272 279 283 285 286 287 288 289 287 285 287 288 288 288 288 288 288 288 289 289 290 290 287 283 280 280 277 272 269 266 263 260 252 251 252 256 254 255 257 257
297 305 298 289 283 283 285 288 289 289 285 286 285 286 287 288 289 289 290 290 290 290 291 290 291 290 290 284 282 281 281 274 268 268 266 265 261 260 252 251 251 255 256 257 257
287 293 293 291 289 286 288 288 287 287 286 285 286 288 290 288 289 290 291 290 291 292 292 292 291 289 288 281 282 285 273 272 269 268 268 267 265 258 256 255 253 253 256 256 256
Height
10878 10877 10876 10874 10873 10871 10870 10868 10867 10866 10864 10863 10861 10860 10860 10859 10859 10860 10860 10861 10862 10863 10863 10865 10866 10867 10868 10869 10871 10873 10874 10875 10878 10881 10883 10884 10887 10888 10890 10892 10894 10896 10901 10895 10901
10875 10873 10872 10871 10870 10868 10867 10865 10863 10861 10860 10859 10858 10857 10856 10855 10855 10856 10856 10857 10858 10858 10859 10860 10861 10862 10863 10864 10865 10866 10867 10869 10871 10874 10876 10877 10879 10879 10881 10883 10885 10888 10890 10891 10892
10871 10870 10868 10867 10866 10865 10863 10861 10859 10857 10856 10855 10853 10852 10851 10850 10850 10851 10851 10852 10853 10854 10854 10855 10856 10858 10859 10859 10860 10861 10863 10864 10866 10867 10870 10871 10872 10872 10874 10874 10877 10878 10879 10881 10884
10866 10864 10863 10861 10860 10859 10857 10856 10854 10852 10851 10849 10848 10847 10846 10845 10845 10845 10845 10845 10846 10846 10847 10848 10850 10852 10853 10854 10855 10856 10857 10859 10860 10861 10863 10865 10866 10866 10868 10868 10868 10868 10871 10872 10873
10860 10859 10857 10855 10853 10852 10851 10849 10848 10846 10845 10844 10842 10840 10839 10839 10838 10838 10837 10837 10838 10838 10840 10841 10842 10844 10846 10847 10847 10849 10850 10852 10853 10854 10855 10857 10859 10860 10859 10860 10860 10862 10862 10863 10864
10853 10852 10850 10849 10846 10844 10842 10841 10839 10838 10837 10835 10834 10833 10832 10831 10831 10830 10830 10829 10829 10830 10831 10832 10833 10835 10837 10838 10839 10840 10842 10843 10844 10845 10846 10849 10851 10851 10852 10851 10853 10854 10854 10854 10855
10846 10844 10842 10841 10839 10836 10834 10832 10830 10828 10827 10826 10824 10823 10823 10822 10822 10821 10821 10820 10820 10821 10822 10822 10823 10824 10826 10828 10828 10831 10833 10833 10833 10835 10837 10839 10840 10841 10842 10841 10842 10844 10846 10846 10844
10838 10836 10833 10832 10830 10827 10824 10821 10820 10818 10817 10815 10814 10813 10813 10811 10811 10811 10810 10810 10810 10811 10811 10812 10813 10814 10815 10817 10817 10819 10820 10821 10822 10823 10825 10826 10828 10831 10831 10831 10832 10834 10836 10835 10836
10829 10827 10824 10820 10818 10816 10814 10811 10809 10808 10806 10804 10803 10802 10802 10800 10800 10800 10799 10800 10799 10800 10800 10800 10801 10803 10803 10805 10806 10806 10808 10809 10811 10809 10813 10812 10814 10819 10818 10819 10818 10821 10822 10823 10825
10819 10816 10814 10810 10807 10805 10802 10800 10797 10795 10793 10792 10790 10790 10789 10789 10787 10786 10787 10787 10787 10787 10787 10788 10789 10790 10790 10791 10792 10796 10795 10796 10797 10801 10799 10801 10802 10805 10808 10806 10804 10806 10806 10807 10809
10809 10805 10801 10799 10796 10794 10791 10787 10785 10782 10781 10779 10777 10776 10775 10775 10775 10774 10774 10773 10773 10774 10775 10775 10776 10777 10777 10778 10779 10782 10782 10781 10783 10785 10790 10785 10789 10789 10792 10794 10791 10791 10792 10793 10795
10799 10796 10793 10789 10786 10783 10780 10777 10773 10771 10768 10768 10764 10762 10762 10760 10761 10760 10760 10759 10760 10761 10762 10763 10762 10763 10763 10764 10764 10765 10766 10766 10768 10771 10773 10772 10774 10775 10773 10778 10777 10777 10778 10779 10779
10788 10786 10783 10780 10777 10773 10770 10765 10762 10759 10756 10756 10750 10748 10746 10745 10745 10746 10746 10746 10746 10746 10747 10747 10748 10750 10750 10750 10751 10751 10750 10751 10752 10753 10758 10755 10761 10758 10755 10761 10758 10760 10761 10764 10764
10779 10776 10773 10771 10767 10763 10758 10755 10751 10747 10743 10746 10733 10732 10730 10729 10729 10731 10732 10733 10733 10733 10733 10733 10733 10735 10734 10734 10736 10735 10734 10736 10735 10737 10740 10737 10748 10743 10739 10742 10743 10743 10744 10745 10747
10769 10768 10764 10760 10758 10754 10750 10746 10741 10736 10732 10729 10723 10718 10714 10714 10714 10717 10715 10717 10717 10718 10719 10716 10720 10719 10719 10719 10721 10719 10719 10720 10720 10720 10720 10725 10723 10729 10721 10724 10726 10728 10727 10728 10728
10762 10757 10755 10752 10748 10745 10740 10736 10732 10727 10722 10720 10710 10707 10703 10700 10699 10700 10699 10699 10699 10700 10703 10702 10702 10705 10703 10703 10703 10703 10702 10702 10702 10701 10707 10707 10701 10720 10702 10707 10712 10709 10709 10711 10711
10752 10748 10743 10740 10736 10733 10730 10726 10723 10716 10712 10707 10702 10696 10693 10690 10687 10685 10684 10683 10682 10683 10685 10686 10686 10684 10687 10688 10686 10687 10685 10687 10686 10681 10694 10685 10685 10701 10685 10693 10693 10690 10695 10694 10694
10738 10734 10731 10727 10721 10719 10716 10715 10711 10706 10700 10697 10691 10687 10682 10680 10675 10674 10671 10670 10670 10669 10669 10670 10674 10666 10666 10670 10669 10665 10663 10669 10663 10664 10669 10661 10672 10680 10669 10669 10671 10667 10678 10679 10677
10722 10718 10714 10711 10707 10703 10700 10699 10700 10693 10688 10685 10680 10677 10670 10668 10663 10662 10658 10658 10656 10655 10656 10654 10659 10650 10649 10650 10649 10652 10648 10640 10639 10652 10641 10657 10652 10654 10653 10651 10649 10650 10653 10659 10662
10704 10701 10696 10694 10690 10687 10684 10681 10683 10676 10674 10670 10668 10665 10660 10654 10655 10649 10644 10644 10644 10641 10640 10638 10644 10637 10634 10631 10633 10630 10626 10621 10620 10624 10622 10640 10632 10637 10627 10623 10638 10638 10630 10634 10640
10685 10680 10673 10671 10671 10670 10667 10665 10666 10664 10656 10656 10652 10650 10646 10641 10637 10636 10632 10626 10630 10629 10626 10620 10621 10629 10618 10615 10612 10608 10608 10601 10591 10595 10596 10604 10614 10614 10607 10607 10607 10620 10618 10610 10613
10659 10645 10638 10642 10649 10649 10650 10648 10647 10647 10642 10639 10635 10633 10628 10625 10622 10618 10614 10608 10608 10615 10606 10600 10601 10606 10602 10598 10588 10582 10582 10574 10566 10577 10570 10570 10599 10589 10582 10581 10576 10593 10593 10592 10590
10633 10619 10620 10625 10630 10633 10631 10632 10630 10626 10625 10621 10618 10617 10610 10609 10605 10602 10598 10592 10589 10589 10586 10579 10577 10575 10584 10575 10562 10549 10554 10552 10545 10545 10551 10546 10565 10559 10557 10556 10561 10561 10563 10565 10571
10624 10614 10616 10618 10617 10617 10617 10616 10613 10608 10605 10602 10599 10598 10596 10592 10589 10588 10581 10576 10571 10564 10559 10556 10555 10545 10555 10549 10529 10526 10527 10527 10519 10513 10517 10517 10527 10539 10535 10532 10533 10530 10533 10541 10547
10619 10609 10604 10604 10604 10601 10600 10599 10596 10595 10588 10586 10582 10580 10579 10576 10572 10566 10562 10557 10550 10542 10537 10528 10529 10517 10523 10510 10500 10502 10511 10503 10482 10485 10475 10491 10492 10512 10515 10508 10505 10499 10515 10509 10514
10608 10601 10595 10592 10591 10589 10587 10584 10580 10577 10574 10572 10568 10565 10561 10557 10553 10547 10539 10530 10525 10515 10509 10502 10502 10489 10500 10472 10468 10476 10487 10465 10459 10452 10447 10452 10464 10480 10478 10479 10481 10472 10486 10485 10482
10592 10589 10585 10584 10579 10575 10575 10572 10567 10560 10555 10553 10552 10549 10542 10539 10532 10525 10518 10508 10502 10491 10482 10474 10467 10457 10468 10440 10445 10460 10428 10426 10427 10429 10426 10422 10439 10445 10442 10449 10454 10457 10455 10454 10458